TimeMDT,TemperatureF,Dew PointF,Humidity,Sea Level PressureIn,VisibilityMPH,Wind Direction,Wind SpeedMPH,Gust SpeedMPH,PrecipitationIn,Events,Conditions,WindDirDegrees,DateUTC
12:53 AM,37.9,8.1,29,29.81,10.0,Variable,4.6,-,N/A,,Clear,0,2012-10-09 06:53:00
1:53 AM,37.0,10.0,33,29.79,10.0,Calm,Calm,-,N/A,,Clear,0,2012-10-09 07:53:00
2:53 AM,39.0,10.9,32,29.79,10.0,North,11.5,20.7,N/A,,Clear,350,2012-10-09 08:53:00
3:53 AM,37.0,10.9,34,29.79,10.0,NNW,11.5,16.1,N/A,,Clear,340,2012-10-09 09:53:00
4:53 AM,39.9,10.9,31,29.79,10.0,NNE,10.4,17.3,N/A,,Clear,30,2012-10-09 10:53:00
5:53 AM,39.0,12.0,33,29.81,10.0,North,10.4,19.6,N/A,,Overcast,350,2012-10-09 11:53:00
6:53 AM,39.0,12.9,34,29.86,10.0,NNE,5.8,-,N/A,,Mostly Cloudy,20,2012-10-09 12:53:00
7:53 AM,39.9,12.9,33,29.87,10.0,NNE,8.1,16.1,N/A,,Clear,20,2012-10-09 13:53:00
8:53 AM,42.1,12.9,31,29.88,10.0,NNW,4.6,18.4,N/A,,Mostly Cloudy,340,2012-10-09 14:53:00
9:53 AM,45.0,14.0,29,29.87,9.0,WNW,10.4,18.4,N/A,,Mostly Cloudy,290,2012-10-09 15:53:00
10:53 AM,46.9,15.1,28,29.86,6.0,NW,13.8,23.0,N/A,,Haze,310,2012-10-09 16:53:00
11:53 AM,48.9,15.1,26,29.86,10.0,WNW,18.4,35.7,N/A,,Partly Cloudy,290,2012-10-09 17:53:00
12:53 PM,50.0,12.9,23,29.83,10.0,WNW,24.2,36.8,N/A,,Clear,290,2012-10-09 18:53:00
1:53 PM,51.1,10.0,19,29.81,9.0,WNW,26.5,36.8,N/A,,Clear,290,2012-10-09 19:53:00
2:53 PM,52.0,8.1,17,29.80,10.0,West,20.7,31.1,N/A,,Clear,280,2012-10-09 20:53:00
3:53 PM,52.0,9.0,18,29.82,10.0,WNW,17.3,29.9,N/A,,Clear,300,2012-10-09 21:53:00
4:53 PM,52.0,10.0,19,29.80,10.0,West,19.6,29.9,N/A,,Clear,280,2012-10-09 22:53:00
5:53 PM,50.0,12.0,22,29.84,10.0,WNW,12.7,20.7,N/A,,Clear,300,2012-10-09 23:53:00
6:53 PM,46.0,10.9,24,29.88,10.0,NW,8.1,-,N/A,,Clear,310,2012-10-10 00:53:00
7:53 PM,43.0,12.9,30,29.91,10.0,North,4.6,-,N/A,,Clear,350,2012-10-10 01:53:00
8:53 PM,39.9,12.0,32,29.95,10.0,NE,3.5,-,N/A,,Clear,40,2012-10-10 02:53:00
9:53 PM,39.9,14.0,35,29.94,10.0,North,6.9,-,N/A,,Clear,10,2012-10-10 03:53:00
10:53 PM,37.0,12.9,37,29.95,10.0,Calm,Calm,-,N/A,,Clear,0,2012-10-10 04:53:00
11:53 PM,35.1,12.9,40,29.96,10.0,NNE,8.1,-,N/A,,Clear,30,2012-10-10 05:53:00